Billings, MT

7:37 PM MDT on September 28, 2016 (GMT -0600)
Billings Logan International

Weather History for KBIL - April, 2013

Change the Weather History Date:

Thursday, April 11, 2013

  Actual Average Record
Temperature  
Mean Temperature 45 °F 45 °F  
Max Temperature 56 °F 56 °F 80 °F (1949)
Min Temperature 34 °F 34 °F 6 °F (1940)
Degree Days  
Heating Degree Days 20 20  
Month to date heating degree days 251 238  
Since 1 July heating degree days 5654 6048  
Cooling Degree Days 0 0  
Month to date cooling degree days 0 0  
Year to date cooling degree days 0 0  
Moisture  
Dew Point 28 °F    
Average Humidity 53    
Maximum Humidity 73    
Minimum Humidity 32    
Precipitation  
Precipitation T in 0.05 in 0.87 in (1993)
Month to date precipitation 0.60 0.55  
Year to date precipitation 1.74 2.57  
Snow  
Snow 0.00 in 0.30 in 7.40 in (1991)
Month to date snowfall 3.1 3.6  
Since 1 July snowfall 37.9 48.3  
Snow Depth 0.00 in    
Sea Level Pressure  
Sea Level Pressure 29.84 in    
Wind  
Wind Speed 17 mph (NW)    
Max Wind Speed 32 mph    
Max Gust Speed 41 mph    
Visibility 10 miles    
Events Rain    
T = Trace of Precipitation, MM = Missing Value Source: NWS Daily Summary

Daily Weather History Graph

Daily Weather History Graph

Search for Another Location

Airport or City:

Trip Planner

Search our weather history database for the weather conditions in past years. The results will help you decide how hot, cold, wet, or windy it might be!

Date:

Astronomy

Apr. 11, 2013 Rise Set
Actual Time 6:34 AM MDT 7:56 PM MDT
Civil Twilight 6:04 AM MDT 8:27 PM MDT
Nautical Twilight 5:26 AM MDT 9:04 PM MDT
Astronomical Twilight 4:47 AM MDT 9:44 PM MDT
Moon 7:03 AM MDT (4/11) 9:39 PM MDT (4/11)
Length of Visible Light 14h 22m
Length of Day
13h 21m
New Moon, 2% of the Moon is Illuminated
Apr 11
New Moon
Apr 18
First Quarter
Apr 25
Full
May 2
Last Quarter
May 9
New

Hourly Weather History & Observations

Time (MDT) Temp. Windchill Dew Point Humidity Pressure Visibility Wind Dir Wind Speed Gust Speed Precip Events Conditions
12:00 AM 39.0 °F 30.3 °F 21.9 °F 50% 29.78 in 10.0 mi SW 16.1 mph - 0.00 in   Light Ice Pellets
12:05 AM 39.0 °F 29.9 °F 24.1 °F 55% 29.77 in 10.0 mi SW 17.3 mph 24.2 mph 0.00 in Rain Light Rain
12:53 AM 37.9 °F 26.8 °F 21.9 °F 53% 29.81 in 10.0 mi WSW 24.2 mph 29.9 mph 0.00 in   Mostly Cloudy
1:53 AM 37.0 °F 25.4 °F 19.9 °F 50% 29.81 in 10.0 mi WSW 25.3 mph 35.7 mph N/A   Scattered Clouds
2:53 AM 36.0 °F 23.7 °F 21.9 °F 57% 29.77 in 10.0 mi WSW 26.5 mph 34.5 mph N/A   Mostly Cloudy
3:53 AM 36.0 °F 25.3 °F 23.0 °F 59% 29.78 in 10.0 mi SW 19.6 mph - N/A   Partly Cloudy
4:53 AM 36.0 °F 27.1 °F 26.1 °F 67% 29.80 in 10.0 mi SW 13.8 mph - N/A   Partly Cloudy
5:53 AM 36.0 °F 27.1 °F 27.0 °F 70% 29.81 in 10.0 mi WSW 13.8 mph - N/A   Scattered Clouds
6:53 AM 37.0 °F 28.9 °F 27.0 °F 67% 29.84 in 10.0 mi West 12.7 mph - N/A   Mostly Cloudy
7:07 AM 43.0 °F 34.8 °F 30.9 °F 62% 29.81 in 10.0 mi WNW 18.4 mph 28.8 mph N/A   Mostly Cloudy
7:53 AM 44.1 °F 35.2 °F 32.0 °F 63% 29.83 in 10.0 mi NW 23.0 mph 31.1 mph N/A   Scattered Clouds
8:53 AM 46.4 °F 38.1 °F 30.2 °F 53% 29.83 in 10.0 mi WNW 24.2 mph 36.8 mph N/A   Scattered Clouds
9:53 AM 50.0 °F - 32.0 °F 50% 29.86 in 10.0 mi WNW 24.2 mph - N/A   Scattered Clouds
10:53 AM 53.6 °F - 30.2 °F 41% 29.84 in 10.0 mi NW 25.3 mph 33.4 mph N/A   Scattered Clouds
11:53 AM 53.1 °F - 28.9 °F 40% 29.85 in 10.0 mi NNW 26.5 mph 39.1 mph N/A   Scattered Clouds
12:53 PM 55.0 °F - 28.9 °F 37% 29.85 in 10.0 mi NNW 26.5 mph 32.2 mph N/A   Mostly Cloudy
1:53 PM 53.1 °F - 28.9 °F 40% 29.86 in 10.0 mi NW 24.2 mph 32.2 mph N/A   Mostly Cloudy
2:53 PM 53.1 °F - 26.1 °F 35% 29.86 in 10.0 mi NNW 21.9 mph - N/A   Mostly Cloudy
3:53 PM 55.0 °F - 27.0 °F 34% 29.84 in 10.0 mi North 20.7 mph 32.2 mph N/A   Scattered Clouds
4:53 PM 55.9 °F - 28.9 °F 36% 29.83 in 10.0 mi North 11.5 mph 20.7 mph N/A   Scattered Clouds
5:53 PM 51.1 °F - 30.9 °F 46% 29.85 in 10.0 mi NNE 16.1 mph - N/A   Scattered Clouds
6:53 PM 48.9 °F - 30.9 °F 50% 29.87 in 10.0 mi NE 11.5 mph - N/A   Mostly Cloudy
7:53 PM 46.0 °F 41.4 °F 32.0 °F 58% 29.85 in 10.0 mi ENE 9.2 mph - N/A   Scattered Clouds
8:53 PM 44.1 °F 39.5 °F 32.0 °F 63% 29.88 in 10.0 mi NNE 8.1 mph - N/A   Scattered Clouds
9:53 PM 41.0 °F 38.0 °F 33.1 °F 73% 29.91 in 10.0 mi NE 4.6 mph - N/A   Partly Cloudy
10:53 PM 41.0 °F 35.8 °F 33.1 °F 73% 29.92 in 10.0 mi North 8.1 mph - N/A   Mostly Cloudy
11:53 PM 41.0 °F 39.0 °F 33.1 °F 73% 29.92 in 10.0 mi NNW 3.5 mph - N/A   Mostly Cloudy